Home   Weather   Guelph   Past weeks

Flag for Canada Past Weather in Guelph, Ontario, Canada — Yesterday and Last 2 Weeks

Now
30 °F

Clear.


Feels Like: 25 °F
Forecast: 28 / 39 °F
Wind: 5 mph from North

Location: Waterloo Well

Current Time: Feb 20, 2017 at 4:00:46 am

Latest Report: Feb 20, 2017 at 3:07 am


Visibility: 9 mi

Pressure: 30.22 "Hg

Humidity: 93%

Dew Point: 28 °F

Location of GuelphLocation

Past Weather in Guelph — Graph

°F

Guelph Temperature Yesterday

Maximum temperature yesterday: 50 °F (at 12:00 pm)
Minimum temperature yesterday: 32 °F (at 7:00 am)
Average temperature yesterday: 40 °F

High & Low Weather Summary for the Past Weeks

 TemperatureHumidityPressure
High54 °F (Feb 18, 4:00 pm)100% (Feb 7, 1:31 pm)30.27 "Hg (Feb 7, 1:31 pm)
Low9 °F (Feb 17, 4:00 am)54% (Feb 9, 1:00 pm)29.24 "Hg (Feb 7, 8:58 pm)
Average27 °F81%29.83 "Hg
* Reported Feb 5 2:00 am — Feb 20 2:38 am, Guelph, Weather by CustomWeather, © 2017

Note: Actual official high and low records may vary slightly from our data, if they occured in-between our weather recording intervals... More about our weather records

Advertising

Guelph Weather History for the Previous 24 Hours

Scroll right to see more
 ConditionsComfort  
Time TempWeatherWind HumidityBarometerVisibility
2:38 am
Mon, Feb 20
28 °FClear.3 mph93%30.21 "Hg9 mi
2:00 am28 °FClear.3 mph100%30.20 "Hg9 mi
1:00 am30 °FClear.3 mph93%30.18 "Hg9 mi
12:00 am32 °FPassing clouds.3 mph87%30.18 "Hg9 mi
11:00 pm
Sun, Feb 19
32 °FClear.3 mph87%30.17 "Hg9 mi
10:00 pm32 °FClear.3 mph87%30.15 "Hg9 mi
9:00 pm32 °FPassing clouds.6 mph87%30.14 "Hg9 mi
8:00 pm36 °FClear.5 mph81%30.11 "Hg9 mi
7:00 pm36 °FClear.7 mph81%30.10 "Hg9 mi
6:00 pm39 °FClear.7 mph75%30.06 "Hg9 mi
5:00 pm43 °FSunny.14 mph66%30.02 "Hg9 mi
4:00 pm46 °FSunny.16 mph62%29.99 "Hg9 mi
3:00 pm48 °FSunny.15 mph62%29.97 "Hg9 mi
2:00 pm48 °FSunny.15 mph62%29.94 "Hg9 mi
1:00 pm50 °FSunny.13 mph58%29.94 "Hg9 mi
12:00 pm50 °FSunny.14 mph58%29.93 "Hg9 mi
11:00 am48 °FSunny.14 mph62%29.92 "Hg9 mi
10:31 am46 °FSunny.16 mph66%29.92 "Hg9 mi
10:00 am45 °FPassing clouds.5 mph71%29.91 "Hg9 mi
9:00 am36 °FOvercast.3 mph93%29.91 "Hg9 mi
8:02 am32 °FIce fog.No wind100%29.89 "Hg6 mi
7:00 am32 °FPartly cloudy.No wind93%29.86 "Hg9 mi
6:00 am34 °FMostly cloudy.5 mph93%29.84 "Hg9 mi
5:00 am36 °FOvercast.7 mph87%29.81 "Hg9 mi
4:00 am37 °FClear.6 mph87%29.78 "Hg9 mi
Weather by CustomWeather, © 2017

See weather overviewHow to use our weather pages